Weather History for Corsicana, TX

Change the Weather History Date:

Monday, March 31, 2014

  Actual Average (KACT) Record (KACT)
Temperature  
Mean Temperature 67 °F 62 °F  
Max Temperature 80 °F 74 °F 93 °F (1946)
Min Temperature 55 °F 51 °F 28 °F (1937)
Degree Days  
Heating Degree Days 0 5  
Month to date heating degree days 246  
Since 1 July heating degree days 2058  
Cooling Degree Days 2 2  
Month to date cooling degree days 34  
Year to date cooling degree days 43  
Growing Degree Days 17 (Base 50)    
Moisture  
Dew Point 54 °F    
Average Humidity 65    
Maximum Humidity 81    
Minimum Humidity 47    
Precipitation  
Precipitation 0.00 in 0.09 in 1.80 in (1919)
Month to date precipitation 3.15  
Year to date precipitation 7.90  
Snow  
Snow 0.00 in 0.00 in 0.00 in ()
Month to date snowfall 0.1  
Since 1 July snowfall 1.0  
Snow Depth -    
Sea Level Pressure  
Sea Level Pressure 29.95 in    
Wind  
Wind Speed 15 mph (South)    
Max Wind Speed 20 mph    
Max Gust Speed 29 mph    
Visibility 10 miles    
Events      
T = Trace of Precipitation, MM = Missing Value Source: NWS Daily Summary

Daily Weather History Graph

Daily Weather History Graph

Search for Another Location

Airport:

Trip Planner

Search our weather history database for the weather conditions in past years. The results will help you decide how hot, cold, wet, or windy it might be!

Date:

Astronomy

Mar. 31, 2014 Rise Set
Actual Time 7:15 AM CDT 7:44 PM CDT
Civil Twilight 6:50 AM CDT 8:09 PM CDT
Nautical Twilight 6:21 AM CDT 8:38 PM CDT
Astronomical Twilight 5:52 AM CDT 9:07 PM CDT
Moon 7:43 AM CDT (3/31) 8:59 PM CDT (3/31)
Length of Visible Light 13h 18m
Length of Day
12h 29m
New Moon, 1% of the Moon is Illuminated
Mar 31
New Moon
Apr 7
First Quarter
Apr 15
Full
Apr 22
Last Quarter
Apr 29
New

Hourly Weather History & Observations

Time (CDT) Temp. Dew Point Humidity Pressure Visibility Wind Dir Wind Speed Gust Speed Precip Events Conditions
12:53 AM 59.0 °F 45.0 °F 60% 30.03 in 10.0 mi South 13.8 mph - N/A   Clear
1:53 AM 57.0 °F 45.0 °F 64% 30.01 in 10.0 mi South 13.8 mph - N/A   Clear
2:53 AM 55.9 °F 46.0 °F 69% 29.99 in 10.0 mi South 13.8 mph - N/A   Partly Cloudy
3:23 AM 57.0 °F 46.0 °F 67% 29.99 in 10.0 mi South 13.8 mph - N/A   Mostly Cloudy
3:53 AM 57.0 °F 46.9 °F 69% 29.97 in 10.0 mi South 13.8 mph - N/A   Overcast
4:53 AM 57.0 °F 48.9 °F 74% 29.96 in 10.0 mi South 13.8 mph - N/A   Overcast
5:53 AM 57.9 °F 50.0 °F 75% 29.96 in 10.0 mi South 12.7 mph - N/A   Overcast
6:53 AM 57.9 °F 51.1 °F 78% 29.95 in 10.0 mi South 15.0 mph - N/A   Overcast
7:53 AM 57.9 °F 52.0 °F 81% 29.96 in 10.0 mi South 18.4 mph - N/A   Mostly Cloudy
8:20 AM 59.0 °F 53.1 °F 81% 29.97 in 10.0 mi SSE 16.1 mph - N/A   Scattered Clouds
8:53 AM 61.0 °F 54.0 °F 78% 29.96 in 10.0 mi South 13.8 mph 21.9 mph N/A   Clear
9:15 AM 62.1 °F 54.0 °F 75% 29.96 in 10.0 mi South 19.6 mph - N/A   Mostly Cloudy
9:53 AM 64.0 °F 55.0 °F 73% 29.98 in 10.0 mi South 16.1 mph 27.6 mph N/A   Overcast
10:53 AM 66.0 °F 55.9 °F 70% 29.98 in 10.0 mi South 15.0 mph 28.8 mph N/A   Overcast
11:53 AM 71.1 °F 57.0 °F 61% 29.96 in 10.0 mi South 19.6 mph - N/A   Mostly Cloudy
12:37 PM 72.0 °F 57.9 °F 61% 29.95 in 10.0 mi South 17.3 mph - N/A   Mostly Cloudy
12:53 PM 73.9 °F 55.9 °F 53% 29.94 in 10.0 mi SSW 17.3 mph 28.8 mph N/A   Partly Cloudy
1:53 PM 73.9 °F 55.9 °F 53% 29.93 in 10.0 mi South 17.3 mph 26.5 mph N/A   Scattered Clouds
2:53 PM 79.0 °F 57.9 °F 48% 29.92 in 10.0 mi SSW 19.6 mph 25.3 mph N/A   Scattered Clouds
3:53 PM 77.0 °F 57.0 °F 50% 29.90 in 10.0 mi South 13.8 mph 24.2 mph N/A   Mostly Cloudy
4:53 PM 78.1 °F 57.0 °F 48% 29.89 in 10.0 mi South 16.1 mph - N/A   Partly Cloudy
5:53 PM 79.0 °F 57.0 °F 47% 29.87 in 10.0 mi South 17.3 mph - N/A   Clear
6:53 PM 77.0 °F 57.9 °F 52% 29.87 in 10.0 mi SSE 12.7 mph - N/A   Clear
7:53 PM 72.0 °F 57.9 °F 61% 29.88 in 10.0 mi SSE 9.2 mph - N/A   Clear
8:53 PM 69.1 °F 57.9 °F 68% 29.91 in 10.0 mi SSE 10.4 mph - N/A   Clear
9:53 PM 70.0 °F 57.9 °F 65% 29.92 in 10.0 mi SSE 15.0 mph - N/A   Clear
10:53 PM 69.1 °F 57.9 °F 68% 29.94 in 10.0 mi SSE 13.8 mph - N/A   Clear
11:53 PM 68.0 °F 57.9 °F 70% 29.93 in 10.0 mi SSE 13.8 mph - N/A   Clear